This is the latest recevied weather packets stored in our database for station/object NQ9F. If no packets are shown the sender has not sent any weather packets the latest 10 day(s).
| Time | Temp. | Humidity | Pressure | Rain* | Wind** | Luminosity | Snow |
|---|---|---|---|---|---|---|---|
| 1777832014 | 25° C | 43% | 1020 hPa | 0 mm | - | 403 W/m² | - |
| 1777831711 | 24.44° C | 42% | 1020.2 hPa | 0 mm | - | 213 W/m² | - |
| 1777831409 | 24.44° C | 42% | 1020.3 hPa | 0 mm | - | 86 W/m² | - |
| 1777831105 | 25° C | 43% | 1020.2 hPa | 0 mm | - | 315 W/m² | - |
| 1777830803 | 24.44° C | 46% | 1020.3 hPa | 0 mm | - | 91 W/m² | - |
| 1777830498 | 24.44° C | 45% | 1020.4 hPa | 0 mm | - | 85 W/m² | - |
| 1777830197 | 23.89° C | 43% | 1020.4 hPa | 0 mm | - | 954 W/m² | - |
| 1777829897 | 23.89° C | 45% | 1020.6 hPa | 0 mm | - | 952 W/m² | - |
| 1777829593 | 23.89° C | 42% | 1020.6 hPa | 0 mm | - | 949 W/m² | - |
| 1777829290 | 23.89° C | 45% | 1020.9 hPa | 0 mm | - | 943 W/m² | - |
| 1777828988 | 24.44° C | 49% | 1020.7 hPa | 0 mm | - | 937 W/m² | - |
| 1777828683 | 24.44° C | 49% | 1020.6 hPa | 0 mm | - | 929 W/m² | - |
| 1777828380 | 23.89° C | 47% | 1021.1 hPa | 0 mm | - | 916 W/m² | - |
| 1777828078 | 23.89° C | 48% | 1020.9 hPa | 0 mm | - | 911 W/m² | - |
| 1777827774 | 23.33° C | 49% | 1021 hPa | 0 mm | - | 905 W/m² | - |
| 1777827471 | 23.89° C | 46% | 1021.1 hPa | 0 mm | - | 897 W/m² | - |
| 1777827169 | 23.33° C | 50% | 1021.2 hPa | 0 mm | - | 885 W/m² | - |
| 1777826864 | 23.89° C | 50% | 1021.2 hPa | 0 mm | - | 877 W/m² | - |
| 1777826563 | 22.78° C | 48% | 1021.3 hPa | 0 mm | - | 866 W/m² | - |
| 1777826258 | 23.33° C | 49% | 1021.4 hPa | 0 mm | - | 854 W/m² | - |
| 1777825956 | 22.78° C | 48% | 1021.3 hPa | 0 mm | - | 845 W/m² | - |
| 1777825653 | 22.78° C | 48% | 1021.5 hPa | 0 mm | - | 828 W/m² | - |
| 1777825351 | 22.78° C | 48% | 1021.5 hPa | 0 mm | - | 820 W/m² | - |
| 1777825047 | 22.78° C | 50% | 1021.3 hPa | 0 mm | - | 806 W/m² | - |
| 1777824743 | 22.22° C | 50% | 1021.4 hPa | 0 mm | - | 794 W/m² | - |
* Rain latest hour (hover to see other rain measurements)
** Current wind speed in m/s (hover to see current wind gust speed)